This is the latest recevied weather packets stored in our database for station/object DO3HUM-5. If no packets are shown the sender has not sent any weather packets the latest 10 day(s).
| Time | Temp. | Humidity | Pressure | Rain* | Wind** | Luminosity | Snow |
|---|---|---|---|---|---|---|---|
| 1777270862 | 7.78° C | 69% | 1031.9 hPa | 0 mm | - | - | - |
| 1777270259 | 7.78° C | 70% | 1031.9 hPa | 0 mm | - | - | - |
| 1777269658 | 7.22° C | 72% | 1031.9 hPa | 0 mm | - | - | - |
| 1777269053 | 7.78° C | 72% | 1031.9 hPa | 0 mm | - | - | - |
| 1777268451 | 7.78° C | 72% | 1031.8 hPa | 0 mm | - | - | - |
| 1777267848 | 6.67° C | 79% | 1031.9 hPa | 0 mm | - | - | - |
| 1777267245 | 5.56° C | 91% | 1031.8 hPa | 0 mm | - | - | - |
| 1777266640 | 2.78° C | 92% | 1031.8 hPa | 0 mm | - | - | - |
| 1777266039 | 0.56° C | 92% | 1031.8 hPa | 0 mm | - | - | - |
| 1777265436 | 0° C | 92% | 1031.7 hPa | 0 mm | - | - | - |
| 1777264832 | -0.56° C | 91% | 1031.8 hPa | 0 mm | - | - | - |
| 1777264229 | -0.56° C | 91% | 1031.7 hPa | 0 mm | - | - | - |
| 1777263626 | -0.56° C | 91% | 1031.5 hPa | 0 mm | - | - | - |
| 1777263023 | -0.56° C | 91% | 1031.3 hPa | 0 mm | - | - | - |
| 1777262421 | 0° C | 91% | 1031.4 hPa | 0 mm | - | - | - |
| 1777261819 | -0.56° C | 91% | 1031.3 hPa | 0 mm | - | - | - |
| 1777261275 | -0.56° C | 91% | 1031.4 hPa | 0 mm | - | - | - |
| 1777260674 | 0° C | 91% | 1031.4 hPa | 0 mm | - | - | - |
| 1777260069 | -0.56° C | 90% | 1031.4 hPa | 0 mm | - | - | - |
| 1777259467 | 0° C | 90% | 1031.3 hPa | 0 mm | - | - | - |
| 1777258865 | 0° C | 90% | 1031.4 hPa | 0 mm | - | - | - |
| 1777258261 | 0.56° C | 90% | 1031.3 hPa | 0 mm | - | - | - |
| 1777257658 | 0.56° C | 90% | 1031.4 hPa | 0 mm | - | - | - |
| 1777257055 | 1.11° C | 90% | 1031.4 hPa | 0 mm | - | - | - |
| 1777256453 | 1.11° C | 90% | 1031.4 hPa | 0 mm | - | - | - |
* Rain latest hour (hover to see other rain measurements)
** Current wind speed in m/s (hover to see current wind gust speed)